GFSNW_925_temp_234.txt.gz
Temp
12 12 12 13 12 13 14 13 14 17 17 15 15 13 14 12 14 14 14 14 15 15 15 15 15 15 14 13 13 12 13 11 10 14 14 13 13 13 13 10 12 10 10 10
12 12 12 12 12 12 12 12 13 17 16 15 14 14 14 14 15 14 14 15 14 14 14 13 15 14 13 13 12 11 11 11 9 13 12 12 12 14 13 12 12 10 10 11
12 12 12 12 12 12 12 12 13 15 14 14 15 15 16 14 12 14 14 14 13 14 14 14 13 14 13 12 12 10 10 11 11 11 12 13 12 12 12 12 10 11 11 12
12 12 12 12 12 12 12 11 13 11 13 13 14 14 15 15 14 13 13 13 13 13 12 13 14 14 13 13 10 10 10 9 10 10 11 10 10 10 11 10 11 9 11 11
12 12 12 11 11 11 11 12 11 11 12 13 13 12 14 15 14 14 13 13 13 12 12 13 12 11 11 11 10 11 10 7 8 7 10 9 9 9 10 10 10 10 10 10
12 12 12 11 11 10 10 8 8 10 9 10 12 13 14 13 12 11 11 11 10 10 11 10 9 9 10 10 9 9 9 8 6 6 7 7 8 7 8 9 10 8 8 7
12 12 12 11 11 10 11 9 9 9 10 8 10 11 11 11 10 10 9 9 9 10 9 9 9 9 9 9 9 9 8 7 6 5 6 7 7 8 8 8 8 7 7 7
12 12 11 11 11 11 10 10 9 8 10 8 8 8 8 7 6 7 7 8 8 9 8 8 8 9 8 8 6 6 6 7 5 5 6 8 7 6 6 6 6 6 5 5
10 11 11 11 11 11 9 9 9 7 8 8 7 6 6 7 6 6 6 6 6 7 7 8 8 9 8 8 4 5 5 6 5 6 5 7 6 6 6 6 3 5 5 4
9 9 10 10 10 9 8 8 7 7 8 5 5 6 6 6 6 6 5 5 5 7 6 7 7 7 8 7 8 4 4 4 4 5 5 6 5 6 6 5 3 4 4 3
7 8 8 8 9 9 8 7 7 7 6 4 3 5 5 4 5 7 4 6 6 5 6 7 7 7 6 5 7 6 5 5 4 5 5 5 4 6 5 3 3 2 2 1
7 8 8 8 8 8 8 6 6 6 5 3 3 3 3 4 5 5 4 5 6 6 6 5 5 5 4 5 5 6 5 7 6 5 6 4 5 4 2 2 1 1 0 0
7 7 8 8 8 8 7 7 5 5 3 2 3 3 2 3 4 4 4 4 4 4 3 4 4 4 5 4 4 7 6 5 5 5 4 4 4 2 2 1 0 -0 -0 -1
7 7 7 7 8 7 7 6 5 6 5 6 3 2 2 2 3 3 4 3 2 2 2 3 3 3 5 4 4 4 3 4 4 4 5 3 3 1 -0 -0 -1 -1 -1 -2
6 7 7 7 7 7 7 6 5 6 6 5 2 2 1 1 2 2 3 2 2 2 2 2 3 4 3 3 2 1 3 4 3 2 1 0 1 -1 -0 -2 -2 -2 -3 -3
5 6 7 7 7 7 5 3 3 4 5 3 4 1 2 1 2 2 1 1 2 2 2 2 3 2 3 1 2 1 1 1 0 -0 -1 -1 -0 -0 -2 -2 -2 -3 -3 -3
6 6 7 7 5 5 5 4 4 4 5 3 1 -0 1 2 2 2 2 2 2 2 2 1 2 2 1 -1 -0 -0 0 -0 -0 -1 -2 0 -2 -3 -2 -2 -3 -3 -3 -3
6 6 5 3 4 3 3 2 3 4 4 3 1 -0 -0 1 1 1 2 1 1 1 1 1 1 1 0 -2 -0 -0 -1 -0 -1 -2 -2 -2 -2 -2 -3 -4 -4 -4 -5 -4
5 3 3 3 3 1 2 3 4 4 4 1 1 1 1 0 1 1 1 1 0 1 -1 1 1 0 -2 -0 -1 -1 -3 -3 -4 -4 -3 -3 -5 -5 -5 -5 -5 -6 -5 -5
5 3 2 0 -0 1 2 2 1 0 -0 0 1 1 -1 -0 -0 0 1 -0 -0 -0 0 0 -2 -0 -2 -2 -3 -3 -4 -4 -5 -6 -5 -5 -6 -6 -6 -6 -6 -5 -5 -6
4 -0 -1 -1 -0 2 2 -1 -1 -1 -1 -0 -1 -0 -1 0 -0 0 1 -1 -2 -2 -1 -1 0 -1 -3 -3 -4 -4 -4 -5 -5 -5 -5 -5 -6 -7 -7 -7 -6 -7 -7 -7
3 0 -0 -0 0 -1 0 -2 -2 -2 0 -2 -2 -1 -1 -2 -0 -1 -3 -2 -3 -2 -1 -3 -1 -3 -3 -4 -4 -5 -5 -5 -5 -6 -6 -7 -7 -7 -7 -8 -8 -8 -8 -8
3 0 -1 0 -3 -1 -0 -1 -2 -3 -2 -3 -2 -2 -3 -3 -3 -4 -4 -4 -3 -3 -2 -3 -4 -4 -4 -5 -5 -5 -5 -6 -6 -7 -8 -9 -9 -9 -9 -9 -9 -10 -9 -9
0 0 -1 -1 -3 -2 -1 -1 -2 -3 -2 -1 -2 -3 -3 -4 -4 -4 -3 -3 -3 -4 -5 -3 -6 -6 -7 -6 -6 -6 -8 -8 -9 -9 -10 -10 -10 -10 -10 -10 -10 -10 -10 -10
-0 0 -1 -3 -4 -4 -4 -4 -4 -2 -3 -4 -4 -4 -3 -5 -6 -4 -3 -4 -6 -5 -4 -5 -7 -9 -9 -9 -9 -9 -9 -10 -10 -10 -10 -10 -10 -11 -10 -10 -10 -10 -10 -10
-2 -3 -4 -2 -3 -3 -2 -3 -3 -4 -5 -4 -4 -5 -6 -6 -5 -5 -5 -5 -6 -4 -6 -7 -9 -10 -11 -12 -10 -10 -10 -10 -10 -10 -10 -10 -10 -10 -10 -10 -10 -10 -10 -10
-3 -3 -2 -2 -3 -2 -2 -2 -5 -4 -4 -3 -5 -5 -4 -8 -7 -5 -6 -6 -6 -6 -5 -8 -11 -11 -13 -10 -10 -10 -10 -10 -10 -10 -10 -10 -10 -10 -10 -10 -10 -9 -9 -9

GFSNW_925_temp_240.txt.gz
Temp
12 13 13 13 14 15 16 12 14 18 17 11 7 11 13 13 13 13 13 13 13 13 13 12 13 13 13 12 11 11 11 9 8 10 11 11 11 11 11 8 9 8 9 10
12 12 12 13 13 13 13 8 9 17 16 12 10 12 13 13 13 13 13 13 13 13 12 12 12 13 12 11 11 11 11 9 8 11 11 11 11 11 12 10 9 7 8 10
12 12 12 13 13 13 13 8 12 10 9 8 12 13 14 13 12 13 12 12 12 12 12 11 12 13 12 10 11 11 10 7 9 10 10 8 8 9 9 9 8 8 9 10
12 12 12 12 12 12 12 7 9 9 11 11 12 13 13 14 13 12 12 12 12 12 12 12 11 11 10 10 10 9 8 7 6 7 7 7 7 7 7 7 8 6 9 8
12 12 12 12 12 12 12 9 9 7 9 11 12 12 12 13 14 12 12 12 12 12 11 12 11 9 10 9 9 9 7 7 6 6 7 6 6 6 7 7 7 7 8 7
12 12 12 12 11 11 11 8 9 10 9 9 10 11 12 13 13 11 11 11 11 10 11 9 8 8 8 8 9 8 8 5 5 5 4 5 6 7 7 7 6 5 6 4
12 12 12 11 11 11 12 11 10 10 11 9 10 12 12 11 11 12 10 10 10 8 8 8 7 5 5 5 6 7 7 5 4 3 4 6 8 6 6 6 4 4 4 3
11 11 11 12 11 11 11 11 11 9 10 9 9 10 9 7 7 7 8 9 6 7 8 8 9 7 7 5 4 5 4 5 4 3 3 5 6 5 5 5 4 3 3 2
11 11 11 11 11 11 10 10 11 9 9 9 10 8 7 8 7 7 7 5 5 7 7 8 9 10 9 8 5 4 4 3 4 4 5 5 5 5 5 5 3 2 2 0
9 10 11 11 11 11 10 10 10 10 8 7 7 8 8 7 7 8 6 6 6 6 6 7 8 8 7 6 6 4 3 2 4 5 5 4 5 5 5 4 4 1 0 -1
8 9 9 9 10 10 10 8 8 9 7 5 5 6 6 5 6 8 5 6 5 5 6 6 5 5 4 4 4 3 4 3 2 3 4 3 4 5 5 2 1 0 -1 -2
8 8 8 8 8 8 8 7 6 7 6 4 3 3 4 5 5 6 5 6 6 6 5 2 4 5 3 3 5 4 4 5 4 4 5 3 2 3 1 1 -0 -2 -2 -3
7 7 8 8 8 7 8 7 6 7 4 3 3 3 3 3 4 4 5 4 5 4 3 5 4 4 3 4 1 3 5 4 4 5 4 2 -0 -1 -1 -2 -2 -2 -3 -3
6 6 7 7 7 7 7 7 6 7 5 6 3 2 2 2 3 4 4 4 3 3 3 3 4 4 3 2 2 3 3 3 3 3 1 -1 -1 -2 -2 -2 -2 -3 -3 -4
6 6 6 7 7 7 7 7 7 7 7 5 2 1 1 2 2 3 4 3 2 2 2 3 3 3 2 1 1 1 1 2 2 2 -0 -1 -1 -3 -3 -3 -4 -4 -4 -5
5 6 6 6 7 7 7 5 5 6 7 3 3 0 0 1 2 2 2 2 2 2 2 2 1 2 2 1 1 0 -1 -2 -1 -1 -1 -2 -2 -4 -4 -4 -5 -5 -5 -5
5 5 6 6 7 6 6 5 5 5 7 3 1 -2 0 1 1 -0 0 1 0 1 1 1 1 1 2 0 -0 -1 -2 -2 -3 -3 -2 -2 -4 -4 -5 -5 -5 -6 -6 -6
5 5 5 5 5 4 4 4 4 5 5 3 1 -1 -1 1 0 0 -0 0 -0 -1 -0 -0 -0 -0 -1 -1 -1 -2 -2 -4 -4 -4 -4 -4 -4 -5 -6 -6 -6 -6 -7 -7
5 5 5 3 4 2 2 3 4 5 4 3 1 0 0 -1 0 0 0 -0 -2 -1 -1 -0 0 -1 -2 -1 -2 -3 -4 -3 -4 -4 -5 -6 -6 -7 -7 -7 -7 -8 -7 -8
4 4 3 0 -1 0 2 1 2 1 -1 -0 -2 -1 -1 -1 -1 -1 -1 -3 -1 -4 -1 -1 -4 -1 -4 -5 -5 -5 -5 -5 -5 -6 -5 -6 -7 -7 -8 -8 -8 -8 -9 -9
3 -0 -1 -1 -0 1 -1 -0 1 -2 -1 -2 -1 -1 -1 -1 -1 -1 -1 -5 -7 -6 -2 -1 -2 -1 -4 -5 -6 -6 -6 -6 -6 -6 -6 -7 -8 -10 -10 -9 -9 -10 -10 -10
3 0 -1 -0 -1 -1 1 -1 -3 -3 0 -3 -2 -1 -1 -2 -1 -2 -3 -2 -3 -3 -1 -3 -3 -4 -5 -6 -6 -7 -7 -7 -7 -7 -8 -9 -9 -9 -10 -10 -10 -11 -11 -10
1 -0 -1 -1 -3 -0 -1 -2 -5 -5 -3 -3 -2 -2 -2 -4 -3 -5 -4 -4 -3 -3 -4 -3 -5 -5 -6 -7 -7 -7 -7 -8 -8 -9 -9 -9 -10 -10 -10 -11 -11 -11 -11 -10
1 0 1 1 -1 -2 -2 -2 -2 -3 -3 -2 -3 -4 -3 -6 -4 -6 -4 -4 -4 -7 -6 -4 -8 -8 -8 -8 -8 -8 -10 -9 -10 -10 -10 -11 -11 -11 -10 -10 -11 -11 -11 -10
0 -0 2 -1 -4 -6 -7 -7 -4 -5 -2 -4 -5 -6 -5 -7 -5 -5 -5 -5 -6 -6 -5 -8 -11 -11 -12 -12 -12 -12 -11 -11 -11 -11 -11 -11 -11 -11 -11 -10 -10 -11 -11 -11
-3 -4 -3 -4 -5 -5 -6 -6 -5 -7 -6 -6 -5 -7 -6 -6 -6 -6 -5 -5 -5 -6 -10 -11 -12 -13 -15 -15 -12 -11 -11 -11 -11 -11 -11 -11 -10 -10 -11 -10 -10 -10 -10 -11
-3 -4 -4 -5 -6 -6 -6 -5 -6 -6 -5 -5 -7 -5 -4 -9 -9 -7 -8 -7 -9 -11 -9 -11 -14 -13 -15 -11 -11 -11 -11 -10 -10 -10 -10 -10 -10 -10 -10 -11 -11 -11 -11 -10

GFSNW_925_temp_243.txt.gz
Temp
12 12 13 13 14 15 15 12 14 17 15 11 7 10 12 13 13 13 13 13 13 13 12 12 13 13 13 11 11 11 10 8 7 10 11 10 11 10 9 7 8 8 8 9
12 12 12 13 13 13 13 9 9 17 16 12 10 12 13 13 13 13 13 13 13 12 12 13 12 13 11 11 11 11 10 8 7 11 10 10 10 11 11 9 7 8 8 8
12 12 12 12 13 13 13 9 13 10 8 7 11 13 13 13 12 12 12 12 12 12 12 11 12 12 11 10 10 11 10 7 9 10 11 8 7 8 9 8 6 7 8 9
12 12 12 12 12 12 12 6 9 9 11 11 12 13 13 13 13 11 12 12 11 12 12 12 11 11 10 9 10 9 8 7 6 7 6 7 8 7 7 6 7 5 8 6
12 12 12 12 12 12 12 9 9 6 8 10 12 11 12 12 13 11 12 11 12 11 12 12 12 10 9 9 9 8 8 7 6 5 6 6 5 6 5 6 6 5 6 6
12 12 12 12 12 11 10 8 9 9 8 8 10 10 12 12 13 12 12 11 12 11 11 9 9 9 9 9 9 8 8 7 6 4 5 4 6 5 6 7 6 5 5 4
12 12 11 11 11 11 12 11 10 9 10 9 10 11 11 12 12 12 10 10 11 8 8 8 8 6 6 5 6 7 7 6 5 3 3 6 8 6 6 6 4 4 4 3
10 10 12 11 11 11 11 12 11 9 11 10 10 10 11 8 7 9 9 8 7 7 8 9 9 8 7 5 3 4 4 5 4 3 2 5 5 5 5 5 5 3 3 2
10 11 10 10 11 11 10 11 12 10 10 9 12 10 8 9 8 7 7 5 5 7 8 8 9 10 9 8 5 3 3 2 4 3 4 6 6 4 4 4 2 1 1 0
10 11 11 10 10 11 10 10 10 11 9 8 8 9 8 8 8 8 7 6 5 6 7 8 8 7 7 7 6 3 2 2 3 3 4 4 4 4 5 4 4 1 0 -1
9 9 9 10 10 11 11 9 10 10 8 5 6 6 6 6 7 8 5 7 5 5 7 6 6 5 4 4 4 4 4 2 1 2 2 3 4 4 4 2 1 -0 -1 -2
7 8 8 9 9 10 9 8 8 8 7 4 3 3 4 4 4 6 4 7 5 6 4 2 3 5 1 2 5 3 4 4 3 3 4 3 1 3 1 0 -0 -2 -2 -3
6 7 7 8 8 8 8 8 7 7 4 3 3 3 2 3 4 3 6 4 5 5 3 5 5 5 3 4 2 3 4 3 3 4 3 2 -0 -1 -1 -2 -2 -2 -3 -4
6 6 7 7 7 7 8 7 7 7 6 6 3 1 1 2 2 3 3 3 3 3 3 4 4 5 4 3 2 2 3 3 2 2 0 -1 -1 -2 -2 -2 -3 -4 -4 -4
6 6 6 6 7 7 7 7 6 6 7 6 3 1 1 1 2 3 3 3 3 2 3 3 4 3 3 1 1 1 1 1 2 1 -1 -1 -2 -3 -3 -4 -4 -5 -5 -6
5 5 6 6 7 7 7 5 6 7 7 4 4 -0 0 1 2 2 2 2 2 2 2 2 2 2 3 1 1 1 -2 -2 -2 -1 -2 -3 -3 -5 -4 -5 -5 -6 -6 -6
5 5 5 6 6 6 5 5 5 6 7 4 2 -1 -0 1 -0 -0 0 0 1 1 1 1 1 1 2 1 1 -1 -2 -3 -3 -4 -3 -3 -4 -4 -5 -6 -6 -6 -6 -7
5 5 5 5 5 4 4 4 3 4 5 3 1 -1 -1 1 -0 0 -1 0 -0 -0 0 -1 -0 0 -1 -1 -1 -3 -3 -4 -4 -5 -5 -5 -5 -6 -6 -7 -7 -8 -8 -8
5 5 5 5 4 2 2 2 3 4 4 4 1 2 2 -0 -0 -0 -0 0 -0 -1 -2 -0 -0 -1 -2 -0 -2 -4 -4 -3 -4 -4 -6 -6 -6 -7 -8 -8 -8 -9 -9 -9
4 4 3 0 -1 1 1 2 2 1 -0 -1 -1 -1 -1 -1 -1 -0 -1 -3 -2 -4 -1 -2 -3 -1 -3 -5 -5 -5 -5 -5 -5 -6 -6 -6 -7 -8 -9 -9 -9 -9 -9 -10
3 0 -0 -1 -0 1 -0 1 1 -0 0 -1 -2 -1 -2 -1 0 0 -0 -4 -5 -5 -2 -1 -3 -1 -4 -6 -6 -6 -6 -6 -7 -6 -7 -8 -8 -10 -11 -10 -10 -10 -10 -11
3 1 -1 -0 -1 -1 2 0 -2 -2 1 -3 -1 -1 -1 -2 -1 -1 -2 -2 -2 -2 -1 -2 -2 -3 -5 -6 -7 -7 -7 -7 -7 -8 -8 -9 -9 -10 -10 -10 -11 -11 -11 -11
2 0 -1 -1 -2 1 2 -0 -3 -6 -3 -3 -2 -2 -2 -3 -3 -4 -4 -3 -2 -3 -3 -2 -3 -5 -6 -7 -7 -8 -8 -8 -8 -9 -9 -10 -10 -10 -10 -11 -11 -11 -11 -11
1 1 1 1 -0 -2 -2 -2 -1 -3 -3 -2 -3 -4 -2 -5 -4 -5 -3 -4 -4 -6 -6 -3 -8 -7 -8 -8 -8 -8 -10 -10 -10 -10 -11 -11 -11 -11 -11 -11 -11 -11 -11 -11
1 -0 1 0 -4 -7 -8 -7 -5 -5 -2 -4 -4 -5 -4 -6 -5 -5 -5 -4 -5 -4 -3 -6 -10 -11 -11 -13 -13 -12 -12 -11 -11 -11 -11 -11 -11 -11 -11 -10 -11 -11 -11 -11
-3 -4 -5 -4 -4 -5 -6 -6 -5 -6 -5 -5 -5 -6 -5 -5 -5 -5 -3 -4 -4 -4 -9 -12 -12 -13 -16 -16 -13 -12 -11 -11 -11 -11 -11 -11 -11 -11 -11 -10 -11 -11 -11 -11
-4 -7 -5 -5 -6 -5 -5 -5 -5 -7 -4 -3 -5 -4 -3 -8 -8 -6 -7 -6 -7 -10 -10 -11 -14 -13 -15 -12 -12 -11 -11 -11 -11 -11 -11 -11 -11 -11 -11 -11 -11 -11 -11 -11

GFSNW_925_temp_249.txt.gz
Temp
12 12 12 12 13 14 15 12 15 14 13 12 6 10 11 12 12 12 12 12 13 13 12 12 12 13 12 11 10 11 9 8 8 11 10 9 10 10 9 9 8 6 7 9
12 11 12 12 12 13 13 9 9 14 14 13 9 11 12 12 12 12 12 12 12 12 12 13 12 12 10 10 10 9 9 8 8 11 10 9 10 9 9 7 6 6 8 10
12 11 11 12 12 12 13 9 12 11 7 7 10 12 12 12 11 12 12 11 12 12 12 11 12 12 10 10 10 11 10 8 10 10 11 9 9 8 8 8 5 7 9 10
11 11 11 11 12 12 12 6 9 8 11 11 11 12 12 12 12 11 11 11 11 12 12 12 11 10 11 9 10 9 9 9 7 9 8 8 8 8 7 7 8 6 9 6
11 11 11 11 11 12 12 9 9 6 7 9 12 11 11 12 12 11 12 11 11 10 12 12 13 11 10 11 8 8 8 8 7 6 7 6 6 7 5 6 6 5 6 6
11 11 11 11 11 11 10 7 8 9 7 8 10 11 12 11 12 11 12 10 10 10 11 11 11 10 10 10 9 8 8 7 6 7 4 5 6 6 5 5 5 4 5 5
11 11 11 11 11 11 11 10 9 9 10 7 9 11 10 11 11 13 11 10 11 10 8 8 7 6 6 5 6 6 7 7 6 6 5 6 8 5 6 6 5 3 4 3
11 10 10 10 11 11 10 11 10 8 9 8 10 10 11 9 9 10 11 9 8 8 9 9 9 9 7 3 2 3 4 7 6 4 2 5 6 4 4 5 6 3 3 2
11 10 10 10 10 10 9 10 11 9 8 8 11 9 9 9 8 9 8 6 6 7 8 8 10 11 10 8 4 2 3 4 5 2 3 7 7 4 4 4 3 1 2 2
11 10 10 10 10 9 9 10 10 11 8 8 9 9 9 8 9 9 7 5 6 7 7 8 9 9 8 8 6 3 3 2 4 4 3 4 4 3 3 5 6 1 1 -0
10 10 10 10 10 10 9 10 10 10 8 8 8 9 8 7 8 9 6 7 5 5 7 8 8 7 5 5 5 4 4 3 2 1 1 3 2 3 4 3 1 0 -1 -2
8 9 9 10 10 10 10 9 9 10 8 5 4 3 4 4 4 7 5 7 6 7 7 6 5 5 2 4 6 3 5 6 5 4 5 3 1 2 -1 -0 -0 -2 -2 -3
6 7 7 8 9 10 9 9 9 7 4 3 3 3 2 3 3 3 6 5 5 5 4 4 5 6 4 4 2 4 4 3 4 5 3 2 0 -2 -2 -2 -3 -3 -4 -5
6 6 7 7 8 9 9 9 8 8 6 7 2 1 0 1 2 2 3 3 3 3 3 4 4 5 3 4 3 4 4 3 4 2 1 -1 -1 -2 -3 -4 -5 -5 -5 -5
5 6 6 7 7 7 7 8 7 7 8 6 2 -1 -0 1 2 2 3 3 3 3 3 4 4 3 3 1 1 1 2 4 4 3 -0 0 -2 -4 -4 -4 -5 -6 -6 -6
5 5 6 6 6 6 6 5 5 6 7 4 4 -2 -1 0 1 1 1 2 2 2 3 3 2 1 2 3 2 2 -0 -2 -2 -0 -3 -4 -5 -5 -5 -5 -6 -6 -7 -7
5 5 5 5 6 6 4 4 4 5 5 4 1 -0 -0 -0 0 -0 0 -0 1 1 2 2 1 1 1 2 2 -0 -2 -4 -4 -4 -4 -4 -5 -5 -6 -6 -7 -7 -7 -8
5 5 5 5 5 5 4 4 5 5 5 3 2 -2 -2 1 0 0 -1 0 0 -0 0 -0 0 0 -0 1 0 -3 -4 -5 -5 -5 -5 -5 -6 -6 -7 -7 -8 -8 -9 -9
4 4 4 4 5 3 2 2 4 5 5 4 2 2 1 -1 -0 -0 -0 -0 1 -2 -2 -0 -0 -1 0 1 -1 -4 -5 -3 -5 -6 -6 -6 -6 -7 -8 -8 -9 -10 -10 -10
4 4 4 1 0 1 2 3 3 2 1 1 1 -0 0 0 -0 0 -0 -1 -1 -4 -2 -2 -2 -1 -2 -4 -5 -4 -5 -5 -5 -6 -6 -6 -6 -7 -9 -9 -10 -10 -10 -11
4 1 -0 -0 1 2 1 2 3 1 2 1 -1 -1 -1 -1 1 0 0 -0 -2 -3 -2 -1 -3 -2 -3 -6 -7 -7 -6 -6 -7 -7 -7 -8 -9 -10 -10 -10 -10 -11 -11 -11
3 1 -0 0 0 0 3 -0 -1 -1 2 -1 -0 -0 -1 -1 -1 -1 -1 -1 -3 -2 -2 -3 -2 -2 -5 -6 -7 -8 -7 -7 -8 -8 -9 -9 -9 -10 -10 -11 -11 -11 -12 -12
2 0 -1 -0 -1 2 3 1 -2 -2 -2 -2 -2 -1 -2 -2 -2 -2 -2 -3 -2 -3 -3 -2 -1 -4 -6 -7 -7 -8 -8 -8 -8 -9 -9 -10 -10 -10 -11 -11 -11 -12 -11 -11
1 1 2 1 -0 -0 1 0 -1 -3 -2 -1 -2 -3 -2 -3 -2 -3 -2 -4 -3 -4 -4 -2 -4 -6 -7 -8 -8 -9 -10 -9 -10 -11 -11 -11 -11 -11 -11 -11 -12 -12 -12 -12
2 1 1 -0 -3 -5 -6 -6 -4 -4 -3 -3 -3 -3 -2 -4 -3 -4 -4 -4 -4 -3 -2 -4 -9 -9 -9 -10 -11 -11 -12 -12 -12 -11 -11 -11 -11 -11 -11 -11 -11 -12 -12 -12
-2 -3 -4 -4 -4 -6 -6 -5 -4 -5 -5 -4 -3 -3 -3 -4 -4 -5 -3 -3 -3 -2 -6 -11 -11 -11 -12 -13 -12 -12 -11 -11 -11 -11 -11 -11 -11 -11 -11 -11 -12 -12 -12 -12
-3 -7 -5 -6 -6 -6 -6 -5 -3 -5 -2 -2 -3 -2 -2 -6 -5 -5 -5 -3 -4 -8 -10 -10 -11 -10 -12 -13 -12 -12 -12 -11 -11 -11 -11 -11 -11 -11 -12 -12 -12 -12 -12 -12

GFSNW_925_temp_252.txt.gz
Temp
12 12 12 12 12 13 14 12 18 14 13 18 13 15 13 13 13 13 14 14 15 15 14 15 15 15 14 12 13 13 12 13 14 15 12 11 12 13 14 14 13 12 11 13
12 12 11 11 12 12 12 14 14 14 13 18 15 12 13 13 13 13 14 14 14 13 14 15 14 13 12 12 12 13 13 13 14 15 12 11 12 12 12 11 11 12 12 15
12 12 11 11 12 12 12 13 16 15 13 11 15 14 14 13 12 13 13 13 13 14 14 13 14 13 11 11 12 11 12 12 14 14 15 12 13 13 12 11 10 12 12 14
12 12 11 11 11 12 12 11 14 10 16 14 14 14 14 13 13 12 13 13 14 15 15 13 13 13 12 10 11 10 11 10 11 12 12 11 11 12 12 11 11 10 13 12
12 12 12 11 11 11 12 13 13 10 11 12 14 12 14 15 13 14 13 14 14 13 15 16 16 13 13 14 9 10 9 10 8 7 10 10 8 10 10 10 10 10 10 10
11 11 11 11 11 11 10 7 8 12 9 12 14 15 14 14 14 13 13 14 13 12 14 13 12 11 10 11 10 10 8 8 7 9 7 7 10 11 11 9 9 9 10 11
11 11 11 11 11 11 11 10 10 13 12 11 13 12 13 13 13 14 12 12 13 12 10 9 10 8 7 7 8 9 8 7 6 8 8 10 10 7 9 9 10 9 9 8
11 11 11 11 11 11 11 11 10 12 13 11 11 11 12 11 10 12 12 12 10 9 11 11 10 10 9 6 5 6 6 8 7 9 8 12 12 7 7 8 10 8 8 6
11 11 11 10 10 10 9 11 11 10 12 12 12 12 12 13 12 11 10 7 7 8 10 10 11 12 12 11 6 5 5 7 8 6 8 11 10 7 6 7 9 6 6 5
11 11 11 10 10 10 9 10 11 11 11 11 11 12 12 11 11 12 9 7 7 8 8 9 10 10 9 9 9 6 6 5 7 8 8 9 9 6 6 8 9 5 5 4
11 11 11 10 10 10 9 10 10 11 10 10 9 10 10 9 11 12 7 7 6 5 8 8 9 8 8 8 9 7 8 7 6 6 6 7 6 5 8 7 4 4 2 2
8 10 11 10 10 10 9 9 9 10 10 6 4 4 5 6 7 8 6 9 7 8 8 7 7 7 5 7 9 5 8 10 9 9 10 6 6 5 3 3 3 1 1 -0
6 7 9 10 10 10 10 9 9 8 4 3 3 3 2 3 5 5 7 5 6 6 5 6 6 7 5 7 7 8 7 6 8 7 9 6 5 1 1 1 0 -1 -1 -2
6 6 7 7 9 9 10 9 9 9 7 8 3 0 1 1 2 3 4 4 3 4 4 5 5 6 5 7 7 8 8 6 8 6 7 3 1 1 0 -1 -2 -2 -3 -3
6 6 6 7 7 8 8 8 8 9 10 6 2 -0 0 1 2 2 3 3 4 3 4 4 5 5 5 4 4 5 6 8 7 9 4 4 1 -1 -1 -2 -2 -3 -4 -4
5 5 6 6 6 6 7 6 6 6 6 3 4 -1 -1 1 2 2 2 2 2 3 4 5 4 2 5 5 6 7 4 1 1 4 -0 -1 -1 -2 -3 -3 -4 -5 -5 -5
5 5 5 5 5 6 5 5 4 5 6 3 1 1 -1 -1 -0 -0 0 0 1 2 3 4 3 3 3 4 6 2 1 -1 -1 -1 -1 -2 -2 -2 -5 -5 -6 -6 -6 -7
4 4 4 4 5 4 4 3 4 5 5 3 3 1 1 -1 2 2 -1 1 1 1 2 1 3 2 2 3 3 -0 -2 -2 -2 -3 -3 -2 -4 -5 -5 -6 -6 -6 -6 -7
4 4 4 4 3 3 2 4 4 4 5 4 3 4 3 0 1 1 0 1 3 -1 2 2 2 2 2 3 1 -1 -2 -1 -2 -4 -4 -4 -4 -5 -6 -6 -7 -7 -7 -8
4 4 4 2 0 1 2 3 3 2 1 2 3 2 2 1 1 1 1 0 2 2 1 0 1 2 -0 -2 -2 -1 -2 -2 -3 -4 -4 -4 -5 -5 -6 -7 -8 -8 -8 -9
3 1 1 0 1 2 2 3 4 2 4 2 -0 1 1 -1 2 2 1 1 -0 1 1 1 1 1 -1 -4 -4 -4 -4 -4 -5 -5 -6 -6 -6 -7 -7 -8 -9 -9 -10 -10
2 1 0 1 1 2 3 1 1 2 4 0 1 0 -0 -0 0 1 -0 1 -1 2 -0 -0 1 1 -4 -4 -5 -6 -6 -6 -6 -7 -7 -8 -8 -9 -9 -10 -10 -11 -11 -12
2 1 1 2 1 3 4 4 2 1 -0 -0 -0 0 -1 -1 -1 -1 -0 0 1 -1 -0 1 1 -3 -4 -5 -6 -7 -7 -7 -8 -8 -9 -9 -10 -10 -11 -11 -11 -12 -12 -12
1 2 2 2 2 2 3 3 2 -1 -0 -0 -1 -1 -0 -1 -1 -1 1 -2 -1 -1 -1 1 -0 -3 -5 -6 -6 -7 -7 -8 -9 -10 -10 -11 -11 -11 -11 -12 -12 -12 -13 -12
2 2 3 1 -3 -4 -5 -4 -2 -3 -1 -1 -1 -2 -1 -2 -2 -2 -2 -2 -1 -1 1 0 -5 -6 -7 -8 -8 -8 -9 -10 -11 -12 -12 -12 -12 -12 -12 -12 -12 -12 -12 -12
-0 -2 -1 -2 -1 -4 -3 -3 -3 -4 -3 -2 -1 -2 -1 -1 -1 -2 -0 0 0 1 -2 -7 -8 -8 -9 -10 -9 -10 -11 -11 -12 -12 -12 -12 -12 -12 -12 -12 -12 -12 -12 -12
-2 -4 -4 -3 -3 -3 -3 -3 -2 -4 -0 -0 -1 -0 -1 -4 -2 -2 -2 -1 -2 -5 -7 -8 -8 -8 -9 -10 -11 -12 -12 -12 -12 -12 -12 -12 -12 -12 -12 -12 -12 -12 -12 -12